Chapel Hill, NC

7:00 PM EST on January 23, 2018 (GMT -0500)
Williams

Weather History for KIGX - September, 2013

Change the Weather History Date:

Monday, September 9, 2013

  Actual Average Record
Temperature  
Mean Temperature 76 °F -  
Max Temperature 88 °F 82 °F 96 °F (1954)
Min Temperature 64 °F 58 °F 43 °F (1951)
Cooling Degree Days 11    
Growing Degree Days 26 (Base 50)    
Moisture  
Dew Point 65 °F    
Average Humidity 73    
Maximum Humidity 93    
Minimum Humidity 46    
Precipitation  
Precipitation 0.00 in - - ()
Sea Level Pressure  
Sea Level Pressure 30.09 in    
Wind  
Wind Speed 2 mph (NE)    
Max Wind Speed 7 mph    
Max Gust Speed -    
Visibility 8 miles    
Events      
Averages and records for this station are not official NWS values.
T = Trace of Precipitation, MM = Missing Value Source: NWS Daily Summary

Daily Weather History Graph

Daily Weather History Graph

Search for Another Location

Airport or City:

Trip Planner

Search our weather history database for the weather conditions in past years. The results will help you decide how hot, cold, wet, or windy it might be!

Date:

Astronomy

Sep. 09, 2013 Rise Set
Actual Time 6:54 AM EDT 7:31 PM EDT
Civil Twilight 6:28 AM EDT 7:57 PM EDT
Nautical Twilight 5:58 AM EDT 8:28 PM EDT
Astronomical Twilight 5:26 AM EDT 8:59 PM EDT
Moon 11:04 AM EDT (9/9) 9:57 PM EDT (9/9)
Length of Visible Light 13h 29m
Length of Day
12h 37m
Waxing Crescent, 19% of the Moon is Illuminated
Sep 9
Waxing Crescent
Sep 12
First Quarter
Sep 19
Full
Sep 26
Last Quarter
Oct 4
New

Hourly Weather History & Observations

Time (EDT) Temp. Heat Index Dew Point Humidity Pressure Visibility Wind Dir Wind Speed Gust Speed Precip Events Conditions
12:56 AM 66.9 °F - 64.9 °F 93% 30.01 in 6.0 mi WNW 3.5 mph - N/A   Clear
1:56 AM 68.0 °F - 64.0 °F 87% 30.01 in 6.0 mi Calm Calm - N/A   Clear
2:56 AM 66.0 °F - 63.0 °F 90% 30.01 in 6.0 mi Calm Calm - N/A   Clear
3:56 AM 66.9 °F - 64.0 °F 90% 30.03 in 6.0 mi Calm Calm - N/A   Scattered Clouds
4:56 AM 66.0 °F - 63.0 °F 90% 30.03 in 5.0 mi Calm Calm - N/A   Clear
5:56 AM 64.9 °F - 62.1 °F 90% 30.05 in 4.0 mi Calm Calm - N/A   Partly Cloudy
6:56 AM 64.9 °F - 62.1 °F 90% 30.07 in 3.0 mi Calm Calm - N/A   Clear
7:56 AM 69.1 °F - 64.9 °F 87% 30.09 in 5.0 mi Calm Calm - N/A   Mostly Cloudy
8:56 AM 75.0 °F - 64.9 °F 71% 30.10 in 10.0 mi NE 3.5 mph - N/A   Scattered Clouds
9:56 AM 78.1 °F - 64.9 °F 64% 30.12 in 10.0 mi ENE 4.6 mph - N/A   Mostly Cloudy
10:56 AM 81.0 °F 83.0 °F 66.0 °F 60% 30.13 in 10.0 mi NNE 4.6 mph - N/A   Clear
11:56 AM 84.0 °F 86.3 °F 66.0 °F 55% 30.13 in 10.0 mi Variable 4.6 mph - N/A   Clear
12:56 PM 84.9 °F 86.1 °F 64.0 °F 49% 30.13 in 10.0 mi Calm Calm - N/A   Partly Cloudy
1:56 PM 87.1 °F 89.2 °F 66.0 °F 49% 30.12 in 10.0 mi NE 6.9 mph - N/A   Clear
2:56 PM 88.0 °F 89.6 °F 64.9 °F 46% 30.11 in 10.0 mi Calm Calm - N/A   Clear
3:56 PM 88.0 °F 90.3 °F 66.0 °F 48% 30.10 in 10.0 mi Variable 4.6 mph - N/A   Scattered Clouds
4:56 PM 84.0 °F 86.3 °F 66.0 °F 55% 30.11 in 10.0 mi ENE 5.8 mph - N/A   Mostly Cloudy
5:56 PM 82.9 °F 85.0 °F 66.0 °F 56% 30.10 in 10.0 mi ENE 3.5 mph - N/A   Clear
6:56 PM 82.0 °F 84.5 °F 66.9 °F 60% 30.10 in 10.0 mi Calm Calm - N/A   Clear
7:56 PM 75.0 °F - 69.1 °F 82% 30.11 in 10.0 mi Calm Calm - N/A   Clear
8:56 PM 73.0 °F - 69.1 °F 87% 30.12 in 8.0 mi Calm Calm - N/A   Clear
9:56 PM 73.0 °F - 68.0 °F 84% 30.14 in 9.0 mi Calm Calm - N/A   Clear
10:56 PM 71.1 °F - 66.9 °F 87% 30.15 in 8.0 mi Calm Calm - N/A   Clear
11:56 PM 71.1 °F - 66.9 °F 87% 30.16 in 9.0 mi Calm Calm - N/A   Clear